GW1554 Weather Reports


Display with metric or nautical units.
time (UTC)temp
F
wind
direction
speed
MPH
gust
MPH
rain 1hr
in
rain 24hr
in
rain mn
in
humidity
%
barometer
mb
20260902113039 81 283 2.0 9.0 0.00 0.00 0.00 71 1019.5
20260902111537 82 165 4.0 9.0 0.00 0.00 0.00 69 1019.7
20260902110036 82 127 2.0 6.0 0.00 0.00 0.00 70 1019.9
20260902104534 82 191 2.0 6.0 0.00 0.00 0.00 70 1020.0
20260902103033 81 105 2.0 8.0 0.00 0.00 0.00 69 1020.0
20260902101533 81 32 1.0 8.0 0.00 0.00 0.00 68 1020.2
20260902100035 80 222 1.0 5.0 0.00 0.00 0.00 66 1020.2
20260902094530 81 221 3.0 9.0 0.00 0.00 0.00 64 1020.1
20260902093028 81 233 3.0 8.0 0.00 0.00 0.00 65 1020.1
20260902091527 80 136 2.0 6.0 0.00 0.00 0.00 69 1020.2
20260902090027 80 54 1.0 5.0 0.00 0.00 0.00 68 1020.0
20260902084521 79 236 2.0 6.0 0.00 0.00 0.00 68 1020.0
20260902083025 79 298 0.0 4.0 0.00 0.00 0.00 69 1019.9
20260902081517 79 78 1.0 5.0 0.00 0.00 0.00 72 1019.7
20260902080016 79 158 1.0 3.0 0.00 0.00 0.00 73 1019.5
20260902074517 78 231 0.0 2.0 0.00 0.00 0.00 72 1019.4
20260902073010 76 288 1.0 3.0 0.00 0.00 0.00 76 1019.5
20260902071508 76 269 0.0 2.0 0.00 0.00 0.00 77 1019.6
20260902070008 75 278 0.0 2.0 0.00 0.00 0.00 80 1019.4
20260902064505 74 271 0.0 2.0 0.00 0.00 0.00 79 1019.5
20260902063001 73 294 0.0 1.0 0.00 0.00 0.00 74 1019.4
20260902061628 72 330 0.0 4.0 0.00 0.00 0.00 71 1019.3
20260902060100 72 1 0.0 1.0 0.00 0.00 0.00 71 1019.3
20260902054558 70 319 2.0 6.0 0.00 0.00 0.00 72 1019.1
20260902053055 69 32 3.0 6.0 0.00 0.00 0.00 72 1019.0
20260902051554 69 356 3.0 7.0 0.00 0.00 0.00 73 1018.9
20260902050056 69 329 3.0 6.0 0.00 0.00 0.00 74 1018.8
20260902044552 68 311 2.0 5.0 0.00 0.00 0.00 76 1018.8
20260902043053 69 313 3.0 7.0 0.00 0.00 0.00 76 1018.9
20260902041605 69 30 4.0 7.0 0.00 0.00 0.00 77 1018.9
20260902040049 69 319 4.0 7.0 0.00 0.00 0.00 81 1018.8
20260902034547 69 4 2.0 6.0 0.00 0.00 0.00 83 1018.9
20260902033045 69 329 1.0 5.0 0.00 0.00 0.00 81 1018.9
20260902031542 70 320 2.0 4.0 0.00 0.00 0.00 78 1019.0
20260902030040 70 310 1.0 5.0 0.00 0.00 0.00 75 1019.2
20260902024544 70 303 0.0 4.0 0.00 0.00 0.00 74 1019.0
20260902023041 70 291 0.0 2.0 0.00 0.00 0.00 74 1018.9
20260902021546 70 323 1.0 4.0 0.00 0.00 0.00 73 1019.0
20260902020037 70 330 1.0 4.0 0.00 0.00 0.00 73 1019.0
20260902014538 71 298 1.0 3.0 0.00 0.00 0.00 72 1019.0
20260902013034 71 338 2.0 6.0 0.00 0.00 0.00 72 1018.9
20260902011533 70 306 3.0 6.0 0.00 0.00 0.00 72 1018.9
20260902010032 70 330 0.0 3.0 0.00 0.00 0.00 71 1018.8
20260902004531 71 13 0.0 2.0 0.00 0.00 0.00 70 1018.9
20260902003029 71 360 0.0 3.0 0.00 0.00 0.00 68 1019.0
20260902001527 71 335 2.0 5.0 0.00 0.00 0.00 67 1019.0
20260902000026 71 328 1.0 7.0 0.00 0.00 0.00 68 1019.0
20260901234523 71 292 4.0 8.0 0.00 0.00 0.00 67 1019.0
20260901233047 72 342 3.0 7.0 0.00 0.00 0.00 69 1019.0
20260901231522 71 340 3.0 9.0 0.00 0.00 0.00 70 1019.0
20260901230031 71 2 4.0 8.0 0.00 0.00 0.00 71 1018.9
20260901224518 72 359 3.0 8.0 0.00 0.00 0.00 71 1019.0
20260901223017 72 309 4.0 9.0 0.00 0.00 0.00 71 1019.0
20260901221515 72 42 5.0 8.0 0.00 0.00 0.00 70 1018.9
20260901220013 72 345 4.0 8.0 0.00 0.00 0.00 67 1018.9
20260901214524 72 333 4.0 9.0 0.00 0.00 0.00 67 1018.8
20260901213010 72 340 4.0 11.0 0.00 0.00 0.00 70 1018.9
20260901211509 74 336 4.0 8.0 0.00 0.00 0.00 71 1018.7
20260901210010 73 337 3.0 7.0 0.00 0.00 0.00 74 1018.8
20260901204507 73 352 4.0 9.0 0.00 0.00 0.00 74 1018.8
20260901203007 73 347 5.0 8.0 0.00 0.00 0.00 73 1018.8
20260901201506 73 20 4.0 8.0 0.00 0.00 0.00 73 1018.7
20260901200107 73 339 2.0 7.0 0.00 0.00 0.00 74 1018.7
20260901194504 74 349 3.0 8.0 0.00 0.00 0.00 74 1018.7
20260901193007 74 20 4.0 8.0 0.00 0.00 0.00 76 1018.5
20260901191504 73 321 5.0 9.0 0.00 0.00 0.00 78 1018.4
20260901190004 74 325 3.0 10.0 0.00 0.00 0.00 78 1018.2
20260901184502 73 315 2.0 6.0 0.00 0.00 0.00 81 1018.3
20260901183104 74 348 1.0 7.0 0.00 0.00 0.00 82 1018.1
20260901181600 74 325 1.0 4.0 0.00 0.00 0.00 82 1018.1
20260901180100 75 347 1.0 4.0 0.00 0.00 0.00 80 1018.2
20260901174603 77 281 0.0 2.0 0.00 0.00 0.00 77 1018.2
20260901173058 78 236 0.0 3.0 0.00 0.00 0.00 75 1018.2
20260901171558 80 240 0.0 4.0 0.00 0.00 0.00 71 1018.2
20260901170058 81 157 1.0 3.0 0.00 0.00 0.00 69 1018.1
20260901164603 80 221 0.0 4.0 0.00 0.00 0.00 70 1018.2
20260901163059 80 143 2.0 6.0 0.00 0.00 0.00 70 1018.1
20260901161556 81 131 0.0 5.0 0.00 0.00 0.00 70 1018.1
20260901160101 80 94 1.0 7.0 0.00 0.00 0.00 72 1018.2
20260901154559 81 101 2.0 6.0 0.00 0.00 0.00 71 1018.1
20260901153105 80 98 1.0 8.0 0.00 0.00 0.00 73 1018.0
20260901151554 81 157 2.0 7.0 0.00 0.00 0.00 70 1017.9
20260901150053 80 106 3.0 5.0 0.00 0.00 0.00 72 1018.0
20260901144552 81 238 2.0 8.0 0.00 0.00 0.00 70 1018.2
20260901143051 81 181 5.0 9.0 0.00 0.00 0.00 69 1018.2
20260901141553 81 91 3.0 8.0 0.00 0.00 0.00 72 1018.2
20260901140050 81 115 6.0 11.0 0.00 0.00 0.00 70 1018.3
20260901134550 81 92 5.0 10.0 0.00 0.00 0.00 70 1018.4
20260901133048 81 70 2.0 9.0 0.00 0.00 0.00 72 1018.4
20260901131548 80 129 3.0 12.0 0.00 0.00 0.00 72 1018.4
20260901130047 82 39 3.0 10.0 0.00 0.00 0.00 71 1018.5
20260901124546 81 132 7.0 14.0 0.00 0.00 0.00 70 1018.6
20260901123045 81 134 2.0 13.0 0.00 0.00 0.00 72 1018.7
20260901121544 81 159 5.0 14.0 0.00 0.00 0.00 71 1018.7
20260901120048 81 139 4.0 10.0 0.00 0.00 0.00 71 1018.5
20260901114541 81 123 4.0 10.0 0.00 0.00 0.00 72 1018.6